Powrót do katalogu

COSMOS 2398

AktywnyMilitariaPO
NORAD 27818·PAYLOAD·🇷🇺 Russia

Wystrzelony Jun 4, 2003 z Plesetsk Cosmodrome

Loading…

Następne Przeloty (najbliższe 24 godziny)

TLE

ŚwieżeSource: Space-Track

Epoka: Sep 14, 2026, 10:18 UTC

1 27818U 03023A   26257.42927762  .00000024  00000-0  89301-5 0  9997
2 27818  82.9447  69.5492 0032588  68.1190 311.2965 13.72409836165987

Śledź COSMOS 2398 w czasie rzeczywistym z AllMySat

Download on the App Store